TITAN 3C TRANSTAGE DEB, 1671

Orbit data source: Space-Track

TITAN 3C TRANSTAGE DEB, 1671 is space debris in LEO originally from a launch on Fri, 15 Oct 1965 UTC launched from the Air Force Eastern Test Range (AFETR). Debris objects in space refer to the collection of defunct objects orbiting the Earth. Examples of debris include non-operational satellites, rocket bodies, and fragments generated from explosions, collisions, or faulty payload assembly.

Loading next visibility...
Identifier
1671, 1965-082AJ
Orbit
LEO
Country
Flag of USUS
Related business
Manufacturer
Unknown
Mission
Spacecraft
Bus & Motor
Unknown
Mass
Unknown
Launch date (UTC)
1965-10-15 (61 years ago)
Launch vehicle
Unknown
Launch site
Air Force Eastern Test Range (AFETR)
Object type
Payload
Rocket body
Debris
Shape & HBR
Unknown shape, 0.3 m
Radar Cross Section
Medium (>0.1 m² and <1 m²)

Expand to show TLE details & history
Last TLE update: 1 week ago

TLE from 1 week ago
0 TITAN 3C TRANSTAGE DEB
1 01671U 65082AJ  26152.10248539  .00000380  00000-0  79129-4 0  9997
2 01671  32.1592 147.1524 0051936  87.6064 273.0524 14.53999220184053
Epoch: 2026-06-01T02:27Z
TLE epoch observation values (Epoch: 2026-06-01T02:27:34.737Z)
Latitude
-0.00002°
Longitude
-139.337°
Altitude
709.505 km
Speed
7.504 km/s
True Right ascension
09h 48m 36s
True Declination
0° 00' 00"
Sunlit
Object was in daylight at epoch
Visualization orbit readout
Latitude
Unknown
Longitude
Unknown
Altitude
Unknown
Speed
Unknown
Apparent Right ascension
Unknown
Apparent Declination
Unknown
Sunlit
N/A
Visualization observer readout
Local Sidereal Time
03:17:26
Azimuth
Unknown
Elevation
Unknown
Doppler factor
Unknown
Orbital elements
Apogee altitude
753.039 km
Perigee altitude
679.349 km
Semi-major axis
7,094.331 km
Eccentricity
0.00519
Inclination
32.1592°
RAAN
147.1524°
Arg. of periapsis
87.6064°
True anomaly
272.45791°
Mean anomaly
273.0524°
Eccentric anomaly
272.75517°
Mean motion
3.63225 °/min
Orbital period
99.11 mins
BSTAR
0.000079129

Documentation

Showing up to 5 results
|